Regional Weather Roundup
Issued by NWS

Home | Current Version | Previous Version | Graphics & Text | Print | Product List | Glossary On
Versions: 1 2 3 4 5 6 7 8 9 10 11 12 13 14 15 16 17 18 19 20 21 22 23 24 25 26 27 28 29 30 31 32 33 34 35 36 37 38 39 40 41 42 43 44 45 46 47 48 49 50
000
ASUS43 KFSD 220602
RWRSD

WEATHER ROUNDUP FOR SOUTH DAKOTA
NATIONAL WEATHER SERVICE SIOUX FALLS SD
100 AM CDT FRI AUG 22 2014

NOTE: "FAIR" INDICATES FEW OR NO CLOUDS BELOW 12,000 FEET WITH NO
SIGNIFICANT WEATHER AND/OR OBSTRUCTIONS TO VISIBILITY.


SDZ001>005-009-010-012>017-220700-
NORTHWEST AND NORTH CENTRAL SOUTH DAKOTA

CITY           SKY/WX    TMP DP  RH WIND       PRES   REMARKS
BUFFALO          N/A     62  60  93 N13       29.98R
FAITH            N/A     68  61  78 NW16G22   29.99R
MOBRIDGE       PTCLDY    68  63  84 E9        29.90F
$$

SDZ012>016-024>037-041>051-057-063-072>074-220700-
SOUTHWEST AND SOUTH CENTRAL SOUTH DAKOTA

CITY           SKY/WX    TMP DP  RH WIND       PRES   REMARKS
RAPID CTY ARPT PTCLDY    63  58  83 N8        29.99F
PIERRE         CLEAR     66  61  84 E6        29.92R
CUSTER         PTCLDY    59  52  77 NW5       30.12S
ELLSWORTH AFB  CLOUDY    65  61  86 NE10      29.99F
PHILIP         CLOUDY    69  60  73 SE10      29.93F
PINE RIDGE     PTCLDY    73  55  53 S15G23    29.97R
WINNER         FAIR      68  62  81 SE7       29.95R
$$

SDZ004>011-016>023-039-040-220700-
NORTHEAST SOUTH DAKOTA

CITY           SKY/WX    TMP DP  RH WIND       PRES   REMARKS
ABERDEEN       CLEAR     64  63  96 NW7       29.91S
WATERTOWN      FAIR      67  66  97 NW5       29.92R
SISSETON         N/A     66  66 100 CALM      29.88S
$$

SDZ017-020-022-023-036>040-048>070-220700-
SOUTHEAST SOUTH DAKOTA

CITY           SKY/WX    TMP DP  RH WIND       PRES   REMARKS
SIOUX FALLS    FAIR      69  67  93 CALM      29.90S
HURON          CLEAR     65  63  93 CALM      29.91S
CHAMBERLAIN    CLEAR     68  64  87 CALM      29.93S
MITCHELL       CLEAR     69  66  90 CALM      29.91S
YANKTON        FAIR      73  70  88 N3        29.89S
$$

ABBREVIATIONS USED IN REMARKS
   TC - TEMPERATURE IN CELSIUS
  WCI - WIND CHILL INDEX
   HX - HEAT INDEX
  VSB - VISIBILITY




USA.gov is the U.S. government's official web portal to all federal, state and local government web resources and services.